Terminal Aerodrome Forecast
Issued by NWS Louisville, KY

Home | Current Version | Previous Version | Text Only | Print | Product List | Glossary On
Versions: 1 2 3 4 5 6 7 8 9 10 11 12 13 14 15
291
FTUS43 KLMK 211543 AAA
TAFLEX
TAF AMD
KLEX 211543Z 2116/2212 27007KT P6SM VCSH OVC008
     FM211730 29006KT 6SM BR VCSH BKN012
     FM211900 32009KT P6SM VCSH BKN022
     FM212200 33007KT P6SM SCT030=

USA.gov is the U.S. government's official web portal to all federal, state and local government web resources and services.